Regional Weather Roundup
Issued by NWS

Home | Current Version | Previous Version | Graphics & Text | Print | Product List | Glossary On
Versions: 1 2 3 4 5 6 7 8 9 10 11 12 13 14 15 16 17 18 19 20 21 22 23 24 25 26 27 28 29 30 31 32 33 34 35 36 37 38 39 40 41 42 43 44 45 46 47 48 49
000
ASUS45 KBOU 201210
RWRCO

WEATHER ROUNDUP FOR COLORADO
NATIONAL WEATHER SERVICE PUEBLO CO
500 AM MST TUE FEB 20 2018

NOTE: "FAIR" INDICATES FEW OR NO CLOUDS BELOW 12000 FEET WITH NO
SIGNIFICANT WEATHER AND/OR OBSTRUCTIONS TO VISIBILITY.

COZ001>005-013-030-031-201300-
...NORTHWEST COLORADO...

CITY           SKY/WX    TMP DP  RH WIND       PRES   REMARKS
CRAIG          CLOUDY     3  -2  79 CALM      29.83R HAZE
HAYDEN         LGT SNOW   1  -2  85 SE3       29.82R FOG
MEEKER         LGT SNOW   6   2  83 CALM      29.80R FOG
RABBIT EARS PA NOT AVBL
STEAMBOAT SPGS CLOUDY    -1  -5  86 CALM      29.77R
WALDEN         FAIR     -11 -17  77 CALM      29.67R
$$

COZ006>008-011-201300-
...WEST CENTRAL VALLEYS...

CITY           SKY/WX    TMP DP  RH WIND       PRES   REMARKS
GRAND JUNCTION CLOUDY    19  19 100 W3        29.85R
MONTROSE       LGT SNOW  18  16  92 CALM      29.84R FOG
EAGLE          CLOUDY    13   5  70 W9        29.77R WCI   1
RIFLE          CLOUDY    13  10  88 CALM      29.83R
DELTA          NOT AVBL
NUCLA          PTSUNNY   21  16  79 SW12      29.84R WCI   9
$$

COZ017>023-064>068-201300-
...SOUTHWEST COLORADO...

CITY           SKY/WX    TMP DP  RH WIND       PRES   REMARKS
DURANGO        CLEAR     13  11  92 CALM      29.81R
CORTEZ         CLEAR      7   3  84 E9        29.85R WCI  -7
PAGOSA SPRINGS LGT SNOW  18  12  77 S10       29.80R WCI   6
TELLURIDE      CLOUDY    11  -2  56 SW6       29.70R WCI   2
WOLF CREEK PAS CLOUDY    -2  -4  92 S28G40    29.60R WCI -28
$$

COZ009-010-012-014-032>034-037-058>063-201300-
...CENTRAL COLORADO...

CITY           SKY/WX    TMP DP  RH WIND       PRES   REMARKS
ASPEN          LGT SNOW  10   6  84 N5        29.68R FOG     WCI   2
BUENA VISTA    FAIR      17  -7  33 S9        29.64R WCI   6
COPPER MTN     LGT SNOW   3  -4  72 W12       29.47R WCI -13
BERTHOUD PASS  LGT SNOW  -6 -17  59 NW31G40   29.41R WCI -34
COTTONWOOD PAS PTCLDY    16  -4  41 W10G23    29.57R WCI   3
GUNNISON       PTCLDY     9   1  70 SE7       29.72R WCI  -2
KREMMLING      CLOUDY    14   3  62 CALM      29.71R
LEADVILLE      CLOUDY     4  -1  80 NW7       29.56R WCI  -8
MONARCH PASS   SNOW       0  -6  78 W28G43    29.60R VSB 1/2 WCI -26
SALIDA         FAIR      19   2  47 SW7G18    29.75R WCI  10
SUNLIGHT       LGT SNOW  -4  -8  84 W9G20     29.60R WCI -20
WILKERSON PASS CLEAR    N/A N/A N/A SW14G22   29.52R
$$

COZ069>075-201300-
...SAN LUIS VALLEY/SANGRE DE CRISTO MOUNTAINS...

CITY           SKY/WX    TMP DP  RH WIND       PRES   REMARKS
ALAMOSA        PTCLDY    15   8  73 S13       29.72R WCI   1
DEL NORTE      CLOUDY    17   3  55 SW9       29.71R WCI   6
LA VETA PASS   CLOUDY     9   3  78 S33G49    29.68R WCI -15
SAGUACHE       PTCLDY    16  10  79 W3        29.70R
$$

COZ035-036-038>040-201300-
...NORTHERN COLORADO FRONT RANGE...

CITY           SKY/WX    TMP DP  RH WIND       PRES   REMARKS
DENVER INTL AP FLURRIES   0  -6  76 CALM      29.84R
DMNS CITY PARK NOT AVBL
AURORA         CLOUDY    -3  -7  84 W3        29.82S
FRONT RANGE AP FAIR      -2  -6  82 CALM      29.83R
ERIE MUNI ARPT CLOUDY     1  -4  82 CALM      29.94R
BOULDER MUN AP FLURRIES   3  -2  78 SW3       29.86R
CENTENNIAL     CLOUDY    -2  -6  83 E7        29.80R WCI -15
BROOMFIELD     CLOUDY     1  -4  78 CALM      29.83R
LOVELAND       PTCLDY    -5 -10  79 SE8       29.89R WCI -20
LONGMONT       MOCLDY    -1  -6  80 CALM      29.91R
$$

COZ041-046-047-076>085-087-088-201300-
...PIKES PEAK/PALMER DIVIDE AND SOUTHERN FOOTHILLS...

CITY           SKY/WX    TMP DP  RH WIND       PRES   REMARKS
COLO. SPRINGS  LGT SNOW  10   8  92 SW8       29.74R FOG     WCI  -2
A. F. ACADEMY  LGT SNOW   4  -1  79 N10       29.71R FOG     WCI -11
SCHRIEVER AFB  NOT AVBL
CHEYENNE MTN   NOT AVBL
ELLICOTT         N/A    N/A N/A N/A CALM        N/A
FALCON         LGT SNOW   9   5  86 MISG      29.70S
FORT CARSON    CLOUDY     7   3  86 SW8       29.76R BLWGSNOWWCI  -6
LIMON          MOCLDY    -3  -6  87 NW16      29.82R WCI -24
MONUMENT HILL  PTCLDY    -6  -9  84 NW3       29.71R
CANON CITY     LGT SNOW  14  10  85 E8        29.80R WCI   3
WALSENBURG     CLOUDY    10   9  92 N16G23    29.73R WCI  -7
TRINIDAD       MOCLDY    12   9  87 NE3       29.77R
$$

COZ042>045-048>051-090-091-201300-
...NORTHEAST COLORADO...

CITY           SKY/WX    TMP DP  RH WIND       PRES   REMARKS
GREELEY ARPT   PTCLDY    -7 -13  75 NW7       29.93R WCI -21
AKRON          CLEAR     -5  -8  87 NW14      29.87R WCI -25
BURLINGTON     MOCLDY     4  -1  80 NW15      29.91R WCI -14
WRAY           FAIR       1  -4  78 NW7       29.97R WCI -11
YUMA           NOT AVBL
STERLING       FAIR       1  -4  78 N3        29.93F
HOLYOKE        FAIR       5  -2  72 NW13      29.96R WCI -12
FORT MORGAN    FAIR      -4 -10  74 N7        29.92R WCI -18
$$

COZ086-089-092>099-201300-
...SOUTHEAST COLORADO...

CITY           SKY/WX    TMP DP  RH WIND       PRES   REMARKS
PUEBLO         CLOUDY    11   5  77 SE8       29.86R WCI  -1
LA JUNTA       PTCLDY     6   1  80 NE7       29.89R WCI  -6
LAMAR          CLOUDY    12   3  67 N9        29.93R WCI   0
SPRINGFIELD      N/A     11   7  84 N12       29.86R WCI  -3
$$





USA.gov is the U.S. government's official web portal to all federal, state and local government web resources and services.